Time,TemperatureF,DewpointF,PressureIn,WindDirection,WindDirectionDegrees,WindSpeedMPH,WindSpeedGustMPH,Humidity,HourlyPrecipIn,Conditions,Clouds,dailyrainin,SoftwareType,DateUTC
2013-07-28 00:12:00,57.0,54.0,-100.00,East,100,0.0,0.0,91,-99.99,,,-99.99,,2013-07-28 08:12:00,
2013-07-28 00:22:00,57.0,54.0,-100.00,East,100,0.0,0.0,91,0.00,,,0.00,,2013-07-28 08:22:00,
2013-07-28 00:33:00,57.0,54.0,-100.00,East,100,0.0,0.0,91,0.00,,,0.00,,2013-07-28 08:33:00,
2013-07-28 00:42:00,57.0,54.0,-100.00,East,100,0.0,0.0,91,0.00,,,0.00,,2013-07-28 08:42:00,
2013-07-28 00:53:00,57.0,54.0,-100.00,East,100,0.0,0.0,91,0.00,,,0.00,,2013-07-28 08:53:00,
2013-07-28 01:22:00,54.0,52.0,-100.00,ESE,104,1.0,2.0,94,0.00,,,0.00,,2013-07-28 09:22:00,
2013-07-28 01:32:00,54.0,52.0,-100.00,ESE,104,1.0,2.0,94,0.00,,,0.00,,2013-07-28 09:32:00,
2013-07-28 01:43:00,54.0,52.0,-100.00,ESE,104,1.0,2.0,94,0.00,,,0.00,,2013-07-28 09:43:00,
2013-07-28 01:53:00,54.0,52.0,-100.00,ESE,104,1.0,2.0,94,0.00,,,0.00,,2013-07-28 09:53:00,
2013-07-28 02:22:00,54.0,53.0,-100.00,East,84,0.0,2.0,97,0.00,,,0.00,,2013-07-28 10:22:00,
2013-07-28 02:32:00,54.0,53.0,-100.00,East,84,0.0,2.0,97,0.00,,,0.00,,2013-07-28 10:32:00,
2013-07-28 02:42:00,54.0,53.0,-100.00,East,84,0.0,2.0,97,0.00,,,0.00,,2013-07-28 10:42:00,
2013-07-28 02:52:00,54.0,53.0,-100.00,East,84,0.0,2.0,97,0.00,,,0.00,,2013-07-28 10:52:00,
2013-07-28 03:12:00,55.0,53.0,-100.00,ENE,75,0.0,2.0,94,-99.99,,,-99.99,,2013-07-28 11:12:00,
2013-07-28 03:22:00,55.0,53.0,-100.00,ENE,75,0.0,2.0,94,0.00,,,0.00,,2013-07-28 11:22:00,
2013-07-28 03:33:00,55.0,53.0,-100.00,ENE,75,0.0,2.0,94,0.00,,,0.00,,2013-07-28 11:33:00,
2013-07-28 03:43:00,55.0,53.0,-100.00,ENE,75,0.0,2.0,94,0.00,,,0.00,,2013-07-28 11:43:00,
2013-07-28 03:53:00,55.0,53.0,-100.00,ENE,75,0.0,2.0,94,0.00,,,0.00,,2013-07-28 11:53:00,
2013-07-28 04:22:00,56.0,54.0,-100.00,East,88,0.0,2.0,93,0.00,,,0.00,,2013-07-28 12:22:00,
2013-07-28 04:33:00,56.0,54.0,-100.00,East,88,0.0,2.0,93,0.00,,,0.00,,2013-07-28 12:33:00,
2013-07-28 04:43:00,56.0,54.0,-100.00,East,88,0.0,2.0,93,0.00,,,0.00,,2013-07-28 12:43:00,
2013-07-28 04:53:00,56.0,54.0,-100.00,East,88,0.0,2.0,93,0.00,,,0.00,,2013-07-28 12:53:00,
2013-07-28 05:22:00,56.0,54.0,-100.00,NE,51,0.0,0.0,93,0.00,,,0.00,,2013-07-28 13:22:00,
2013-07-28 05:32:00,56.0,54.0,-100.00,NE,51,0.0,0.0,93,0.00,,,0.00,,2013-07-28 13:32:00,
2013-07-28 05:43:00,56.0,54.0,-100.00,NE,51,0.0,0.0,93,0.00,,,0.00,,2013-07-28 13:43:00,
2013-07-28 05:52:00,56.0,54.0,-100.00,NE,51,0.0,0.0,93,0.00,,,0.00,,2013-07-28 13:52:00,
2013-07-28 06:33:00,57.0,55.0,-100.00,NE,50,0.0,0.0,93,0.00,,,0.00,,2013-07-28 14:33:00,
2013-07-28 06:43:00,57.0,55.0,-100.00,NE,50,0.0,0.0,93,0.00,,,0.00,,2013-07-28 14:43:00,
2013-07-28 06:53:00,57.0,55.0,-100.00,NE,50,0.0,0.0,93,0.00,,,0.00,,2013-07-28 14:53:00,
2013-07-28 07:32:00,58.0,56.0,-100.00,NE,51,0.0,0.0,93,0.00,,,0.00,,2013-07-28 15:32:00,
2013-07-28 07:43:00,58.0,56.0,-100.00,NE,51,0.0,0.0,93,0.00,,,0.00,,2013-07-28 15:43:00,
2013-07-28 07:53:00,58.0,56.0,-100.00,NE,51,0.0,0.0,93,0.00,,,0.00,,2013-07-28 15:53:00,
2013-07-28 08:22:00,60.0,58.0,-100.00,East,85,1.0,2.0,94,0.00,,,0.00,,2013-07-28 16:22:00,
2013-07-28 08:33:00,60.0,58.0,-100.00,East,85,1.0,2.0,94,0.00,,,0.00,,2013-07-28 16:33:00,
2013-07-28 08:43:00,60.0,58.0,-100.00,East,85,1.0,2.0,94,0.00,,,0.00,,2013-07-28 16:43:00,
2013-07-28 08:52:00,60.0,58.0,-100.00,East,85,1.0,2.0,94,0.00,,,0.00,,2013-07-28 16:52:00,
2013-07-28 09:22:00,61.0,58.0,-100.00,West,270,2.0,3.0,90,-99.99,,,-99.99,,2013-07-28 17:22:00,
2013-07-28 09:43:00,61.0,58.0,-100.00,West,270,2.0,3.0,90,0.00,,,0.00,,2013-07-28 17:43:00,
2013-07-28 09:53:00,61.0,58.0,-100.00,West,270,2.0,3.0,90,0.00,,,0.00,,2013-07-28 17:53:00,
2013-07-28 10:12:00,63.0,58.0,-100.00,South,191,2.0,3.0,85,-99.99,,,-99.99,,2013-07-28 18:12:00,
2013-07-28 10:22:00,63.0,58.0,-100.00,South,191,2.0,3.0,85,0.00,,,0.00,,2013-07-28 18:22:00,
2013-07-28 10:32:00,63.0,58.0,-100.00,South,191,2.0,3.0,85,0.00,,,0.00,,2013-07-28 18:32:00,
2013-07-28 10:43:00,63.0,58.0,-100.00,South,191,2.0,3.0,85,0.00,,,0.00,,2013-07-28 18:43:00,
2013-07-28 10:52:00,63.0,58.0,-100.00,South,191,2.0,3.0,85,0.00,,,0.00,,2013-07-28 18:52:00,
2013-07-28 11:12:00,64.0,58.0,-100.00,WSW,244,2.0,4.0,80,-99.99,,,-99.99,,2013-07-28 19:12:00,
2013-07-28 11:22:00,64.0,58.0,-100.00,WSW,244,2.0,5.0,80,0.00,,,0.00,,2013-07-28 19:22:00,
2013-07-28 11:32:00,64.0,58.0,-100.00,WSW,244,2.0,5.0,80,0.00,,,0.00,,2013-07-28 19:32:00,
2013-07-28 11:43:00,64.0,58.0,-100.00,WSW,244,2.0,5.0,80,0.00,,,0.00,,2013-07-28 19:43:00,
2013-07-28 11:52:00,64.0,58.0,-100.00,WSW,244,2.0,5.0,80,0.00,,,0.00,,2013-07-28 19:52:00,
2013-07-28 12:12:00,66.0,58.0,-100.00,WSW,245,3.0,4.0,75,-99.99,,,-99.99,,2013-07-28 20:12:00,
2013-07-28 12:22:00,66.0,58.0,-100.00,WSW,245,3.0,5.0,75,0.00,,,0.00,,2013-07-28 20:22:00,
2013-07-28 12:33:00,66.0,58.0,-100.00,WSW,245,3.0,5.0,75,0.00,,,0.00,,2013-07-28 20:33:00,
2013-07-28 12:43:00,66.0,58.0,-100.00,WSW,245,3.0,5.0,75,0.00,,,0.00,,2013-07-28 20:43:00,
2013-07-28 12:52:00,66.0,58.0,-100.00,WSW,245,3.0,5.0,75,0.00,,,0.00,,2013-07-28 20:52:00,
2013-07-28 13:33:00,68.0,58.0,-100.00,North,5,2.0,8.0,71,0.00,,,0.00,,2013-07-28 21:33:00,
2013-07-28 13:43:00,68.0,58.0,-100.00,North,5,2.0,8.0,71,0.00,,,0.00,,2013-07-28 21:43:00,
2013-07-28 13:52:00,68.0,58.0,-100.00,North,5,2.0,8.0,71,0.00,,,0.00,,2013-07-28 21:52:00,
2013-07-28 14:43:00,74.0,60.0,-100.00,West,277,3.0,6.0,61,0.00,,,0.00,,2013-07-28 22:43:00,
2013-07-28 14:52:00,74.0,60.0,-100.00,West,277,3.0,6.0,61,0.00,,,0.00,,2013-07-28 22:52:00,
2013-07-28 15:22:00,75.0,60.0,-100.00,West,274,4.0,8.0,59,0.00,,,0.00,,2013-07-28 23:22:00,
2013-07-28 15:32:00,75.0,60.0,-100.00,West,274,4.0,8.0,59,0.00,,,0.00,,2013-07-28 23:32:00,
2013-07-28 15:43:00,75.0,60.0,-100.00,West,274,4.0,8.0,59,0.00,,,0.00,,2013-07-28 23:43:00,
2013-07-28 15:53:00,75.0,60.0,-100.00,West,274,4.0,8.0,59,0.00,,,0.00,,2013-07-28 23:53:00,
2013-07-28 16:22:00,76.0,60.0,-100.00,West,267,3.0,9.0,57,0.00,,,0.00,,2013-07-29 00:22:00,
2013-07-28 16:32:00,76.0,60.0,-100.00,West,267,3.0,9.0,57,0.00,,,0.00,,2013-07-29 00:32:00,
2013-07-28 16:43:00,76.0,60.0,-100.00,West,267,3.0,9.0,57,0.00,,,0.00,,2013-07-29 00:43:00,
2013-07-28 16:52:00,76.0,60.0,-100.00,West,267,3.0,9.0,57,0.00,,,0.00,,2013-07-29 00:52:00,
2013-07-28 17:25:00,76.0,59.0,-100.00,WSW,256,4.0,9.0,55,0.00,,,0.00,,2013-07-29 01:25:00,
2013-07-28 17:34:00,76.0,59.0,-100.00,WSW,256,4.0,9.0,55,0.00,,,0.00,,2013-07-29 01:34:00,
2013-07-28 17:42:00,76.0,59.0,-100.00,WSW,256,4.0,9.0,55,0.00,,,0.00,,2013-07-29 01:42:00,
2013-07-28 17:54:00,76.0,59.0,-100.00,WSW,256,4.0,9.0,55,0.00,,,0.00,,2013-07-29 01:54:00,
2013-07-28 18:24:00,77.0,60.0,-100.00,WSW,250,4.0,9.0,56,-99.99,,,-99.99,,2013-07-29 02:24:00,
2013-07-28 18:35:00,77.0,60.0,-100.00,WSW,250,5.0,9.0,56,0.00,,,0.00,,2013-07-29 02:35:00,
2013-07-28 18:45:00,77.0,60.0,-100.00,WSW,250,5.0,9.0,56,0.00,,,0.00,,2013-07-29 02:45:00,
2013-07-28 19:22:00,77.0,61.0,-100.00,SW,228,4.0,8.0,57,0.00,,,0.00,,2013-07-29 03:22:00,
2013-07-28 19:35:00,77.0,61.0,-100.00,SW,228,4.0,8.0,57,0.00,,,0.00,,2013-07-29 03:35:00,
2013-07-28 19:45:00,77.0,61.0,-100.00,SW,228,4.0,8.0,57,0.00,,,0.00,,2013-07-29 03:45:00,
2013-07-28 19:53:00,77.0,61.0,-100.00,SW,228,4.0,8.0,57,0.00,,,0.00,,2013-07-29 03:53:00,
2013-07-28 20:22:00,76.0,59.0,-100.00,WSW,241,4.0,6.0,56,0.00,,,0.00,,2013-07-29 04:22:00,
2013-07-28 20:32:00,76.0,59.0,-100.00,WSW,241,4.0,6.0,56,0.00,,,0.00,,2013-07-29 04:32:00,
2013-07-28 20:43:00,76.0,59.0,-100.00,WSW,241,4.0,6.0,56,0.00,,,0.00,,2013-07-29 04:43:00,
2013-07-28 20:53:00,76.0,59.0,-100.00,WSW,241,4.0,6.0,56,0.00,,,0.00,,2013-07-29 04:53:00,
2013-07-28 21:22:00,74.0,58.0,-100.00,WSW,242,2.0,6.0,57,0.00,,,0.00,,2013-07-29 05:22:00,
2013-07-28 21:32:00,74.0,58.0,-100.00,WSW,242,2.0,6.0,57,0.00,,,0.00,,2013-07-29 05:32:00,
2013-07-28 21:42:00,74.0,58.0,-100.00,WSW,242,2.0,6.0,57,0.00,,,0.00,,2013-07-29 05:42:00,
2013-07-28 21:53:00,74.0,58.0,-100.00,WSW,242,2.0,6.0,57,0.00,,,0.00,,2013-07-29 05:53:00,
2013-07-28 22:22:00,69.0,56.0,-100.00,WSW,252,3.0,6.0,64,0.00,,,0.00,,2013-07-29 06:22:00,
2013-07-28 22:32:00,69.0,56.0,-100.00,WSW,252,3.0,6.0,64,0.00,,,0.00,,2013-07-29 06:32:00,
2013-07-28 22:43:00,69.0,56.0,-100.00,WSW,252,3.0,6.0,64,0.00,,,0.00,,2013-07-29 06:43:00,
2013-07-28 22:52:00,69.0,56.0,-100.00,WSW,252,3.0,6.0,64,0.00,,,0.00,,2013-07-29 06:52:00,
2013-07-28 23:33:00,63.0,55.0,-100.00,ESE,120,1.0,5.0,76,0.00,,,0.00,,2013-07-29 07:33:00,
2013-07-28 23:43:00,63.0,55.0,-100.00,ESE,120,1.0,5.0,76,0.00,,,0.00,,2013-07-29 07:43:00,
2013-07-28 23:53:00,63.0,55.0,-100.00,ESE,120,1.0,5.0,76,0.00,,,0.00,,2013-07-29 07:53:00,